STARLINK-11281, 60996

Orbit data source: Space-Track

STARLINK-11281, 60996 is a payload satellite owned by SpaceX/Seattle (US) in LEO that was launched on Thu, 05 Sep 2024 UTC via an FALCON 9 launch vehicle from the Air Force Eastern Test Range (AFETR). Payloads include a variety of satellites, spacecraft, and rockets equipped with specific instruments for various scientific and technological missions. These include communications satellites like Starlink; space stations such as the ISS; scientific satellites like the Hubble; Earth observation satellites from companies like Planet Labs, Umbra, and HawkEye 360; GPS; miniature CubeSats for education and research; and military/defense satellites.

Loading next visibility...
STARLINK-11281 details
Identifier
60996, 2024-158G
Orbit
LEO
Last TLE update7 hours ago
Origin
Flag of USSpaceX/Seattle (US)
ManufacturerSpaceX/Seattle
MissionOperational spacecraft
Bus & MotorSTARLINK V2M, Unknown motor
Mass730 kg wet, ~700 kg dry
Launch date (UTC)
2024-09-05 (3 months ago)
Launch vehicle
FALCON 9
Launch site
Air Force Eastern Test Range (AFETR)
Object type
Payload
Rocket body
Debris
Shape & HBRUnknown
Radar Cross SectionLarge (>1 m²)

Expand to show TLE details & history

TLE from 7 hours ago
0 STARLINK-11281
1 60996U 24158G   24337.20538705  .00006881  00000-0  61510-4 0  9999
2 60996  53.1580  41.3322 0000528 108.5024 251.6052 15.69745111 14965
Epoch: 2024-12-02T04:55Z
Definitive object data (Epoch: 2024-12-02T04:55:45.441Z)
Latitude0.00005°
Longitude-104.13968°
Altitude360.653 km
Speed7.694 km/s
True Right ascension02h 45m 19s
True Declination0° 00' 00"
Sunlit
Object was in full shadow at TLE epoch
Visualization TLE readout
Latitude46.10027°
Longitude23.76936°
Altitude364.18 km
Speed7.697 km/s
Apparent Right ascension16h 37m 23s
Apparent Declination17° 18' 52"
Sunlit
Object is in daylight
Visualization observer readout
Local Sidereal Time09:18:45
Azimuth64.214° ENE
Elevation-3.173°
Doppler factor1
Orbital elements
Apogee altitude360.243 km
Perigee altitude359.532 km
Semi-major axis6,738.024 km
Eccentricity0.0000528
Inclination53.158°
RAAN41.3322°
Arg. of periapsis108.5024°
True anomaly251.59946°
Mean anomaly251.6052°
Eccentric anomaly251.60233°
Mean motion3.92414 °/min
BSTAR0.00006151
Orbital period91.74 mins
Loading maneuver chart data...
Loading historical data...
Loading historical data...
Loading historical data...
Loading historical data...
Loading historical data...
Loading historical data...
Loading historical data...

STARLINK-11281 Visibility forecast

Observer location: undefined°, undefined

Span
Click to sort rows by Start time (UTC) header in descending order
Start Az.
Max El. time (UTC)
Max El. Az.
Max El.
End time (UTC)
End Az.
4 mins2024-12-03 07:06:01.103Z228.292° WSW2024-12-03 07:08:01.103Z57.446° ENE44.278°2024-12-03 07:10:01.103Z50.421° ENE
|